TimePST,TemperatureF,Dew PointF,Humidity,Sea Level PressureIn,VisibilityMPH,Wind Direction,Wind SpeedMPH,Gust SpeedMPH,PrecipitationIn,Events,Conditions,WindDirDegrees,DateUTC
12:03 AM,32.0,32.0,100,29.93,8.0,Calm,Calm,-,N/A,,Overcast,0,2012-11-18 08:03:00
12:17 AM,33.8,32.0,93,29.94,4.0,Calm,Calm,-,0.00,Snow,Light Snow,0,2012-11-18 08:17:00
12:23 AM,33.8,32.0,93,29.94,2.5,Calm,Calm,-,0.00,Snow,Light Snow,0,2012-11-18 08:23:00
12:25 AM,33.8,32.0,93,29.94,3.0,Calm,Calm,-,0.00,Snow,Light Snow,0,2012-11-18 08:25:00
12:50 AM,32.0,32.0,100,29.94,4.0,Calm,Calm,-,0.00,,Overcast,0,2012-11-18 08:50:00
12:55 AM,33.1,32.0,96,29.94,4.0,Calm,Calm,-,0.00,,Overcast,0,2012-11-18 08:55:00
1:12 AM,33.8,32.0,93,29.93,4.0,Calm,Calm,-,N/A,,Overcast,0,2012-11-18 09:12:00
1:29 AM,32.0,32.0,100,29.93,2.5,Calm,Calm,-,N/A,,Overcast,0,2012-11-18 09:29:00
1:47 AM,32.0,32.0,100,29.93,4.0,Calm,Calm,-,N/A,,Overcast,0,2012-11-18 09:47:00
1:55 AM,32.0,32.0,100,29.93,5.0,Calm,Calm,-,N/A,,Mostly Cloudy,0,2012-11-18 09:55:00
2:02 AM,32.0,32.0,100,29.93,2.0,Calm,Calm,-,N/A,,Mostly Cloudy,0,2012-11-18 10:02:00
2:08 AM,32.0,32.0,100,29.94,0.8,Calm,Calm,-,N/A,,Mostly Cloudy,0,2012-11-18 10:08:00
2:18 AM,32.0,32.0,100,29.94,0.5,Calm,Calm,-,N/A,Fog,Fog,0,2012-11-18 10:18:00
2:55 AM,32.0,32.0,100,29.94,7.0,Calm,Calm,-,N/A,,Mostly Cloudy,0,2012-11-18 10:55:00
3:03 AM,32.0,30.2,93,29.94,10.0,Calm,Calm,-,N/A,,Scattered Clouds,0,2012-11-18 11:03:00
3:09 AM,30.2,30.2,100,29.94,1.8,Calm,Calm,-,N/A,,Scattered Clouds,0,2012-11-18 11:09:00
3:19 AM,30.2,30.2,100,29.94,0.5,Calm,Calm,-,N/A,Fog,Light Freezing Fog,0,2012-11-18 11:19:00
3:39 AM,30.2,30.2,100,29.94,0.2,Calm,Calm,-,N/A,Fog,Light Freezing Fog,0,2012-11-18 11:39:00
3:55 AM,30.0,30.0,100,29.95,0.2,Calm,Calm,-,N/A,Fog,Light Freezing Fog,0,2012-11-18 11:55:00
4:11 AM,30.2,30.2,100,29.94,0.2,Calm,Calm,-,N/A,Fog,Light Freezing Fog,0,2012-11-18 12:11:00
4:40 AM,30.2,30.2,100,29.94,1.0,ENE,4.6,-,N/A,,Overcast,60,2012-11-18 12:40:00
4:43 AM,30.2,30.2,100,29.94,0.8,ENE,3.5,-,N/A,,Overcast,60,2012-11-18 12:43:00
4:53 AM,30.2,30.2,100,29.95,1.5,East,3.5,-,N/A,,Mostly Cloudy,80,2012-11-18 12:53:00
4:55 AM,30.9,30.0,96,29.95,2.0,Calm,Calm,-,N/A,,Mostly Cloudy,0,2012-11-18 12:55:00
5:03 AM,30.2,30.2,100,29.95,4.0,Calm,Calm,-,N/A,,Mostly Cloudy,0,2012-11-18 13:03:00
5:10 AM,30.2,30.2,100,29.95,4.0,Calm,Calm,-,N/A,,Scattered Clouds,0,2012-11-18 13:10:00
5:16 AM,30.2,28.4,93,29.95,1.8,Calm,Calm,-,N/A,,Scattered Clouds,0,2012-11-18 13:16:00
5:33 AM,30.2,28.4,93,29.96,3.0,Calm,Calm,-,N/A,,Mostly Cloudy,0,2012-11-18 13:33:00
5:55 AM,30.9,30.9,100,29.96,8.0,Variable,5.8,-,0.00,,Mostly Cloudy,0,2012-11-18 13:55:00
6:55 AM,30.0,30.0,100,29.99,6.0,Calm,Calm,-,0.00,,Scattered Clouds,0,2012-11-18 14:55:00
7:55 AM,30.9,30.9,100,30.01,7.0,Calm,Calm,-,N/A,,Mostly Cloudy,0,2012-11-18 15:55:00
8:55 AM,32.0,32.0,100,30.04,7.0,Calm,Calm,-,N/A,,Overcast,0,2012-11-18 16:55:00
9:55 AM,34.0,33.1,96,30.04,10.0,SW,6.9,-,N/A,,Overcast,220,2012-11-18 17:55:00
10:55 AM,37.0,35.1,93,30.05,10.0,West,6.9,-,N/A,,Overcast,280,2012-11-18 18:55:00
11:08 AM,37.4,35.6,93,30.01,10.0,West,8.1,-,N/A,,Mostly Cloudy,280,2012-11-18 19:08:00
11:55 AM,39.0,36.0,89,30.03,10.0,West,6.9,-,N/A,,Overcast,280,2012-11-18 19:55:00
12:55 PM,37.9,35.1,89,30.03,10.0,West,6.9,-,N/A,,Overcast,280,2012-11-18 20:55:00
1:55 PM,37.9,34.0,86,30.03,10.0,West,8.1,-,N/A,,Overcast,270,2012-11-18 21:55:00
2:55 PM,37.9,34.0,86,30.04,10.0,WSW,10.4,-,N/A,,Overcast,250,2012-11-18 22:55:00
3:55 PM,37.9,33.1,83,30.06,10.0,WSW,6.9,-,N/A,,Overcast,240,2012-11-18 23:55:00
4:55 PM,37.9,30.9,76,30.06,10.0,SW,11.5,-,N/A,,Overcast,220,2012-11-19 00:55:00
5:55 PM,37.0,28.9,73,30.06,10.0,South,13.8,-,N/A,,Clear,190,2012-11-19 01:55:00
6:55 PM,35.1,28.9,78,30.09,10.0,South,9.2,-,N/A,,Overcast,190,2012-11-19 02:55:00
7:55 PM,35.1,27.0,72,30.09,10.0,South,10.4,-,N/A,,Scattered Clouds,190,2012-11-19 03:55:00
8:55 PM,35.1,27.0,72,30.11,10.0,South,9.2,-,N/A,,Overcast,180,2012-11-19 04:55:00
9:55 PM,36.0,28.0,73,30.11,10.0,South,9.2,-,N/A,,Overcast,180,2012-11-19 05:55:00
10:55 PM,36.0,28.9,76,30.11,10.0,SSE,9.2,-,N/A,,Overcast,160,2012-11-19 06:55:00
11:55 PM,36.0,28.9,76,30.11,10.0,South,9.2,-,N/A,,Overcast,170,2012-11-19 07:55:00